This is the latest recevied weather packets stored in our database for station/object IT9GFD-13. If no packets are shown the sender has not sent any weather packets the latest 10 day(s).
| Time | Temp. | Humidity | Pressure | Rain* | Wind** | Luminosity | Snow |
|---|---|---|---|---|---|---|---|
| 1777696837 | 13.89° C | 56% | 1021.9 hPa | 0 mm | - | - | - |
| 1777696257 | 13.89° C | 57% | 1021.9 hPa | 0 mm | - | - | - |
| 1777690817 | 13.89° C | 55% | 1021.8 hPa | 0 mm | - | - | - |
| 1777685417 | 13.89° C | 63% | 1021.7 hPa | 0 mm | - | - | - |
| 1777678817 | 15° C | 63% | 1021.4 hPa | 0 mm | - | - | - |
| 1777677017 | 15.56° C | 62% | 1021.6 hPa | 0 mm | - | - | - |
| 1777672889 | 15.56° C | 62% | 1021.9 hPa | 0 mm | - | - | - |
| 1777670436 | 15.56° C | 63% | 1022 hPa | 0 mm | - | - | - |
| 1777668616 | 15.56° C | 63% | 1021.8 hPa | 0 mm | - | - | - |
| 1777668036 | 15.56° C | 62% | 1021.9 hPa | 0 mm | - | - | - |
| 1777666836 | 15.56° C | 61% | 1021.8 hPa | 0 mm | - | - | - |
| 1777663856 | 15.56° C | 59% | 1021.5 hPa | 0 mm | - | - | - |
| 1777662016 | 15.56° C | 59% | 1021.4 hPa | 0 mm | - | - | - |
| 1777660836 | 15.56° C | 61% | 1021.2 hPa | 0 mm | - | - | - |
| 1777659616 | 16.11° C | 60% | 1020.7 hPa | 0 mm | - | - | - |
| 1777656016 | 16.67° C | 57% | 1020.2 hPa | 0 mm | - | - | - |
| 1777655416 | 17.22° C | 57% | 1020.1 hPa | 0 mm | - | - | - |
| 1777651215 | 17.78° C | 71% | 1019.8 hPa | 0 mm | - | - | - |
| 1777647018 | 17.78° C | 70% | 1019.8 hPa | 0 mm | - | - | - |
| 1777645818 | 17.78° C | 71% | 1019.9 hPa | 0 mm | - | - | - |
| 1777645218 | 18.33° C | 70% | 1019.9 hPa | 0 mm | - | - | - |
| 1777642817 | 18.33° C | 72% | 1019.9 hPa | 0 mm | - | - | - |
| 1777641017 | 17.78° C | 72% | 1020.2 hPa | 0 mm | - | - | - |
| 1777632018 | 18.33° C | 73% | 1020.3 hPa | 0 mm | - | - | - |
| 1777629037 | 18.33° C | 75% | 1020.3 hPa | 0 mm | - | - | - |
* Rain latest hour (hover to see other rain measurements)
** Current wind speed in m/s (hover to see current wind gust speed)